Погода Большая Мурта

Погода Большая Мурта : погода сейчас, прогноз погоды и архив. Всё, что Вы хотите узнать о погоде Большая Мурта!

Хотите узнать прогноз погоды Большая Мурта? Тогда Вам сюда: Погода Большая Мурта

Поиск расширенной информации на нашем сайте:

Другие новости

Новости СМИ2

Главная страница сайта

Новости сайта

03.07.2017

Напоминаем, что на нашем специализированном сайте Метеоцентр.Азия вы можете получить высокодетализированные автоматические прогнозы погоды по пунктам России, СНГ и мира в авиационном формате (включающие направление и скорость ветра, видимость, явления погоды, количество и форму облачности, нижнюю и верхнюю границу облачности).

Рекомендуем: промокод связной сентябрь 2015

Погода Большая Мурта - сегодня

Время (UTC), дата Ветер
(°,м/с) 
Видим.   Явления Облачность Т
(°С)
Тd
(°С)
f(%) Тe
(°С)
Pmin
(гПа)
dP
(гПа)
Po
(мм)
O2
(г/м3)
Тmin Tmax R s Состояние
почвы
03 18.02.18 170 (Ю) 4000 м  слаб. снег  10/0 средняя 
[As trans]
-16.4 -19.4 78 -19  1037.2  -0.2  760  327           
06 18.02.18 200 (Ю) 4000 м  слаб. снег  10/0 средняя 
[As trans]
-12.6 -16.9 70 -16  1035.9  -0.9  759  322           
09 18.02.18 210 (ЮЗ) 10 км  {снег}  9/0 верхняя 
[Ci]
-11 -16.8 62 -13  1034.7  -1.1  758  320           
12 18.02.18 210 (ЮЗ) 20000 м  {снег}  9/6 600 м кучево-дожд., верхняя 
[Cb cap|Ci fib]
-12.5 -17 69 -12  1034.7  -0.1  758  321    -10.9  0.0     
15 18.02.18 230 (ЮЗ) 20000 м  {ливн. осадки}  8/8 600 м кучево-дожд. 
[Cb cap]
-12.6 -17.4 67 -15  1034.4  -0.3  758  322           
18 18.02.18 230 (ЮЗ) 20000 м  {ливн. осадки}  10/8 600 м кучево-дожд., средняя 
[Cb cap|As trans]
-13.3 -17.7 69 -15  1033.9  -0.6  757  322           
21 18.02.18 230 (ЮЗ) 20000 м    10/0 средняя 
[As trans]
-13.7 -17.1 75 -16  1033.4  -0.5  757  323           
00 19.02.18 160 (Ю) 4000 м  слаб. снег  10/0 средняя 
[As trans]
-14.9 -17.1 83 -15  1033.2  -0.3  757  324  -15.1    0.0  44  равномерный
сухой снег
100% 
03 19.02.18 210 (ЮЗ) 4000 м  слаб. снег  10/0 средняя 
[As trans]
-12.8 -15.4 81 -15  1033.1  0.1  757  321           
06 19.02.18 200 (Ю) 4000 м  слаб. снег  10/0 средняя 
[As trans]
-10.5 -14.5 72 -12  1031.5  -1.3  756  318           
09 19.02.18 220 (ЮЗ) 20000 м  позёмок{снег}  10/5 600 м кучево-дожд., средняя 
[Cb cap|As trans]
-8.3 -14.5 61 -12  1030.2  -1.1  755  315           
12 19.02.18 230 (ЮЗ) 4000 м  слаб. ливневой снег  10/6 600 м кучево-дожд., средняя 
[Cb cap|As trans]
-9.6 -13.1 76 -13  1030.4  0.1  755  317    -8.2  0.9     
15 19.02.18 240 (ЮЗ) 4000 м  слаб. ливневой снег  10/10 600 м кучево-дожд. 
[Cb cap]
-11.5 -15 75 -15  1030.9  0.3  755  319           
18 19.02.18 240 (ЮЗ) 4000 м  слаб. ливневой снег  10/10 600 м кучево-дожд. 
[Cb cap]
-11.8 -14.9 78 -14  1030.8  -0.1  755  319           
21 19.02.18 240 (ЮЗ) 4000 м  слаб. ливневой снег  10/10 600 м кучево-дожд. 
[Cb cap]
-11.8 -14.3 82 -14  1030.5  -0.3  755  319           
00 20.02.18 190 (Ю) 4000 м  слаб. ливневой снег  10/10 600 м кучево-дожд. 
[Cb cap]
-11.7 -12.9 91 -12  1029.8  -0.7  754  319  -12.1    44  равномерный
сухой снег
100% 
03 20.02.18 270 (З) 4000 м  слаб. ливневой снег  10/10 600 м кучево-дожд. 
[Cb cap]
-10.5 -13 82 -14  1029.8  0.1  755  317           
06 20.02.18 260 (З) 4000 м  слаб. ливневой снег  10/8 600 м кучево-дожд., средняя 
[Cb cap|As trans]
-9.4 -12.8 76 -11  1029.4  -0.3  754  316           
09 20.02.18 260 (З) 20000 м  {ливн. осадки}  10/8 600 м кучево-дожд., средняя 
[Cb cap|As trans]
-8.4 -12.6 72 -10  1029.2  -0.1  754  315           
12 20.02.18 210 (ЮЗ) 20000 м  {ливн. осадки}  10/10 600 м кучево-дожд. 
[Cb cap]
-9.8 -11.5 87 -10  1029.2  -0.1  754  316    -8.2     
15 20.02.18 250 (З) 4000 м  слаб. ливневой снег  10/5 600 м кучево-дожд., верхняя 
[Cb cap|Cs]
-10.2 -12 87 -10  1028.8  -0.5  754  317           
18 20.02.18 250 (З) 4000 м  слаб. ливневой снег  10/8 600 м кучево-дожд., средняя 
[Cb cap|As op]
-10.2 -12 87 -10  1027.6  -1.1  753  316           
21 20.02.18 250 (З) 4000 м  слаб. ливневой снег  10/5 600 м кучево-дожд., средняя 
[Cb cap|As op]
-10.6 -11 97 -10  1026.9  -0.8  752  316           
00 21.02.18 тихо ()   4000 м  слаб. ливневой снег  10/10 600 м кучево-дожд. 
[Cb cap]
-10.9 -11.1 98 -11  1026.3  -0.6  752  317  -12.3    44  равномерный
сухой снег
100% 
03 21.02.18 260 (З) 10 км  {ливн. осадки}  9/0 верхняя 
[Ci]
-9.4 -11 88 -9  1025.9  -0.2  752  315           
Время (UTC), дата Ветер
(°,м/с) 
Видим.   Явления Облачность Т
(°С)
Тd
(°С)
f(%) Тe
(°С)
Pmin
(гПа)
dP
(гПа)
Po
(мм)
O2
(г/м3)
Тmin Tmax R s Состояние
почвы

Для получения пояснительной информации подведите курсор к названию столбца.

ПОГОДА Большая Мурта - архив

Всё, что Вы хотите узнать о погоде Большая Мурта - удобно и подробно!

Выберите нужную дату (начиная с 1 января 2015* года) и нажмите кнопку "Найти".
Будут отображены архивные сводки погоды по пункту Большая Мурта, начиная с указанной даты.


Отображать данные в формате CSV (для использования в таблицах Excel)


Внимание! Наш архив погоды предназначен исключительно для личного некоммерческого использования в познавательных целях. Если Вам необходимы официальные справки о состоянии погоды (для производственных, юридических, коммерческих и т.п. целей), обращайтесь в органы Росгидромета.

*Примечание: данная дата относится к архиву по метеостанциям СССР (Россия, СНГ, Балтия).
Архив по метеостанциям Зарубежной Европы и Азии (кроме Китая) хранится 10 дней, по другим регионам земного шара (Китай, Африка, Америка, Австралия, Океания) - 1 день.

Большая Мурта - район местоположения метеостанции


Название, широта, долгота, высота метеостанции:
Большая Мурта 56.9°ш. 93.1°д. 180 м над ур. моря [Российская Федерация]

Дополнительная информация

В oтличие oт бoльшинства пoгoдных сайтoв мы публикуем пoдрoбную метеoинфoрмацию в детальнoм прoфессиoнальнoм фoрмате.

Характеристики температуры и влажнoсти вoздуха измеряются на высoте 2 м в тени вдали oт зданий и деревьев.
Скoрoсть ветра измеряется на высoте 10 м (на урoвне рoста челoвека скoрoсть ветра ниже в 1.5-2 раза). Если метеoстанция нахoдится в гoрoде или в лесу, тo скoрoсть ветра занижена на 2-4 м/с пo сравнению с oткрытым местoм. Скoрoсть ветра над акватoриями крупных рек и oзёр, а также на вершинах хoлмoв на 2-5 м/с выше, чем в oбычных услoвиях.
Атмoсфернoе давление в разных тoчках местнoсти мoжет значительнo oтличаться oт давления на метеoстанции, в зависимoсти oт услoвий рельефа (при пoдъёме на 10 м давление пoнижается примернo на 1 мм рт.ст.).